Вернуться в каталог

BREEZE-M DEB

LostHEO
NORAD 38623·DEBRIS·🇷🇺 Russia

Запущен Mar 14, 2008 с Baikonur Cosmodrome

Loading…

Ближайшие Пролёты (ближайшие 24 часа)

TLE

УстаревшееSource: Space-Track

Эпоха: Feb 20, 2015, 22:45 UTC

1 38623U 08011BW  15051.94803497 +.00000258 +00000-0 +20355-1 0  9999
2 38623 049.1140 027.4995 6323170 032.9139 353.9319 03.05494782037935

Отслеживайте BREEZE-M DEB в реальном времени с AllMySat

Download on the App Store